This is the latest recevied weather packets stored in our database for station/object W4UWO. If no packets are shown the sender has not sent any weather packets the latest 10 day(s).
| Time | Temp. | Humidity | Pressure | Rain* | Wind** | Luminosity | Snow |
|---|---|---|---|---|---|---|---|
| 1788361695 | 33.89° C | 51% | 1021.3 hPa | 0 mm | - | 593 W/m² | - |
| 1788361392 | 33.33° C | 52% | 1021.3 hPa | 0 mm | - | 583 W/m² | - |
| 1788361091 | 32.78° C | 53% | 1021.3 hPa | 0 mm | - | 567 W/m² | - |
| 1788360786 | 32.78° C | 55% | 1021.2 hPa | 0 mm | - | 538 W/m² | - |
| 1788360482 | 32.22° C | 55% | 1021.4 hPa | 0 mm | - | 522 W/m² | - |
| 1788360177 | 31.67° C | 58% | 1021.2 hPa | 0 mm | - | 507 W/m² | - |
| 1788359872 | 31.67° C | 59% | 1021.2 hPa | 0 mm | - | 496 W/m² | - |
| 1788359567 | 31.67° C | 60% | 1021.3 hPa | 0 mm | - | 477 W/m² | - |
| 1788359263 | 31.67° C | 59% | 1021.2 hPa | 0 mm | - | 460 W/m² | - |
| 1788358959 | 31.11° C | 61% | 1021.4 hPa | 0 mm | - | 443 W/m² | - |
| 1788358658 | 31.11° C | 62% | 1021.3 hPa | 0 mm | - | 424 W/m² | - |
| 1788358354 | 30.56° C | 64% | 1021.2 hPa | 0 mm | - | 411 W/m² | - |
| 1788358049 | 29.44° C | 70% | 1021.2 hPa | 0 mm | - | 394 W/m² | - |
| 1788357744 | 28.89° C | 69% | 1021.3 hPa | 0 mm | - | 375 W/m² | - |
| 1788357443 | 29.44° C | 68% | 1021.3 hPa | 0 mm | - | 110 W/m² | - |
| 1788357139 | 28.89° C | 69% | 1021.2 hPa | 0 mm | - | 344 W/m² | - |
| 1788356838 | 29.44° C | 68% | 1021.2 hPa | 0 mm | - | 223 W/m² | - |
| 1788356534 | 28.89° C | 69% | 1021.2 hPa | 0 mm | - | 309 W/m² | - |
| 1788356229 | 28.33° C | 71% | 1021.2 hPa | 0 mm | - | 88 W/m² | - |
| 1788355928 | 27.78° C | 72% | 1021.3 hPa | 0 mm | - | 275 W/m² | - |
| 1788355624 | 27.22° C | 75% | 1021.3 hPa | 0 mm | - | 84 W/m² | - |
| 1788355319 | 27.78° C | 73% | 1021.2 hPa | 0 mm | - | 81 W/m² | - |
| 1788355014 | 27.22° C | 74% | 1021.3 hPa | 0 mm | - | 78 W/m² | - |
| 1788354710 | 27.22° C | 74% | 1021.2 hPa | 0 mm | - | 75 W/m² | - |
| 1788354406 | 27.22° C | 73% | 1021.2 hPa | 0 mm | - | 74 W/m² | - |
* Rain latest hour (hover to see other rain measurements)
** Current wind speed in m/s (hover to see current wind gust speed)